EW9318 Weather Reports


Display with metric or nautical units.
time (UTC)temp
F
wind
direction
speed
MPH
gust
MPH
rain 1hr
in
rain 24hr
in
rain mn
in
humidity
%
barometer
mb
20240526210516 61 256 5.0 8.0 0.15 0.30 0.30 93 1002.1
20240526210016 61 252 3.0 7.0 0.22 0.30 0.30 93 1002.1
20240526205517 61 245 4.0 7.0 0.30 0.30 0.30 93 1002.2
20240526205017 61 253 2.0 7.0 0.29 0.29 0.28 93 1002.1
20240526204516 61 252 4.0 7.0 0.29 0.29 0.28 92 1002.1
20240526204036 61 267 4.0 9.0 0.28 0.28 0.28 92 1002.1
20240526203537 61 249 5.0 9.0 0.27 0.27 0.27 92 1002.3
20240526203016 61 234 2.0 7.0 0.26 0.26 0.26 91 1002.4
20240526202516 61 227 4.0 15.0 0.24 0.24 0.24 91 1002.7
20240526202015 61 237 8.0 17.0 0.22 0.22 0.22 90 1002.8
20240526201536 61 248 12.0 17.0 0.20 0.20 0.20 89 1002.6
20240526201015 62 247 13.0 21.0 0.18 0.18 0.18 87 1002.5
20240526200515 63 249 13.0 21.0 0.15 0.15 0.15 83 1002.5
20240526200015 66 234 12.0 29.0 0.08 0.08 0.08 78 1002.7
20240526195516 69 265 17.0 30.0 0.00 0.00 0.00 64 1001.8
20240526195015 74 222 8.0 30.0 0.00 0.00 0.00 62 1002.3
20240526194516 74 58 2.0 4.0 0.00 0.00 0.00 63 1001.2
20240526194036 74 53 1.0 4.0 0.00 0.00 0.00 64 1001.3
20240526193515 74 86 1.0 8.0 0.00 0.00 0.00 63 1001.4
20240526193016 74 115 5.0 8.0 0.00 0.00 0.00 62 1001.5
20240526192515 74 105 3.0 7.0 0.00 0.00 0.00 62 1001.6
20240526192015 74 114 3.0 9.0 0.00 0.00 0.00 63 1001.7
20240526191517 74 129 4.0 10.0 0.00 0.00 0.00 63 1001.6
20240526191037 74 118 6.0 10.0 0.00 0.00 0.00 61 1001.7
20240526190516 74 121 6.0 13.0 0.00 0.00 0.00 62 1001.6
20240526190015 74 120 8.0 14.0 0.00 0.00 0.00 61 1001.7
20240526185535 74 128 9.0 14.0 0.00 0.00 0.00 62 1001.6
20240526185015 74 119 8.0 13.0 0.00 0.00 0.00 62 1001.6
20240526184516 74 117 8.0 13.0 0.00 0.00 0.00 62 1001.7
20240526184036 74 105 9.0 12.0 0.00 0.00 0.00 62 1001.8
20240526183515 74 96 7.0 13.0 0.00 0.00 0.00 62 1001.7
20240526183036 74 94 9.0 13.0 0.00 0.00 0.00 61 1001.8
20240526182515 74 102 7.0 12.0 0.00 0.00 0.00 61 1002.0
20240526182015 74 117 9.0 12.0 0.00 0.00 0.00 60 1002.3
20240526181515 74 128 8.0 12.0 0.00 0.00 0.00 59 1002.5
20240526181015 74 130 9.0 16.0 0.00 0.00 0.00 60 1002.7
20240526180556 74 121 10.0 17.0 0.00 0.00 0.00 60 1002.8
20240526180015 74 130 11.0 17.0 0.00 0.00 0.00 60 1003.0
20240526175516 74 122 10.0 16.0 0.00 0.00 0.00 59 1003.1
20240526175016 74 119 7.0 13.0 0.00 0.00 0.00 60 1003.1
20240526174515 74 127 9.0 14.0 0.00 0.00 0.00 61 1003.3
20240526174015 74 127 10.0 14.0 0.00 0.00 0.00 60 1003.5
20240526173535 74 120 9.0 14.0 0.00 0.00 0.00 61 1003.5
20240526173056 74 118 9.0 14.0 0.00 0.00 0.00 61 1003.6
20240526172515 74 119 9.0 14.0 0.00 0.00 0.00 61 1003.7
20240526172016 74 119 10.0 16.0 0.00 0.00 0.00 60 1003.8
20240526171515 74 110 11.0 16.0 0.00 0.00 0.00 60 1003.9
20240526171015 74 111 11.0 16.0 0.00 0.00 0.00 61 1004.1
20240526170515 74 116 11.0 17.0 0.00 0.00 0.00 58 1004.4
20240526170015 74 113 12.0 17.0 0.00 0.00 0.00 61 1004.5
20240526165516 73 115 11.0 17.0 0.00 0.00 0.00 60 1004.7
20240526165015 73 113 12.0 17.0 0.00 0.00 0.00 59 1004.6
20240526164515 73 122 11.0 19.0 0.00 0.00 0.00 58 1004.6
20240526164016 73 118 13.0 19.0 0.00 0.00 0.00 58 1004.7
20240526163515 73 119 13.0 19.0 0.00 0.00 0.00 56 1004.9
20240526163015 73 119 10.0 15.0 0.00 0.00 0.00 57 1005.2
20240526162515 73 121 11.0 15.0 0.00 0.00 0.00 58 1005.3
20240526162015 73 121 10.0 19.0 0.00 0.00 0.00 59 1005.4
20240526161516 73 128 12.0 19.0 0.00 0.00 0.00 57 1005.5
20240526161015 73 116 11.0 17.0 0.00 0.00 0.00 57 1005.6
20240526160515 72 127 11.0 18.0 0.00 0.00 0.00 59 1005.8
20240526160035 72 126 11.0 18.0 0.00 0.00 0.00 58 1005.9
20240526155515 72 127 13.0 18.0 0.00 0.00 0.00 57 1005.9
20240526155015 72 128 12.0 18.0 0.00 0.00 0.00 57 1005.8
20240526154516 72 130 10.0 18.0 0.00 0.00 0.00 57 1005.9
20240526154017 72 130 9.0 17.0 0.00 0.00 0.00 59 1006.1
20240526153517 71 129 10.0 17.0 0.00 0.00 0.00 58 1006.1
20240526153017 71 123 10.0 15.0 0.00 0.00 0.00 58 1006.1
20240526152518 71 122 10.0 15.0 0.00 0.00 0.00 58 1006.4
20240526152017 71 128 9.0 16.0 0.00 0.00 0.00 60 1006.5
20240526151517 71 124 11.0 17.0 0.00 0.00 0.00 59 1006.6
20240526151017 71 123 12.0 17.0 0.00 0.00 0.00 59 1006.7
20240526150518 71 129 11.0 17.0 0.00 0.00 0.00 61 1007.0
20240526150017 70 122 10.0 17.0 0.00 0.00 0.00 63 1007.0
20240526145515 70 128 12.0 17.0 0.00 0.00 0.00 61 1007.1
20240526145017 69 124 10.0 20.0 0.00 0.00 0.00 62 1007.3
20240526144517 69 116 13.0 20.0 0.00 0.00 0.00 62 1007.2
20240526144017 69 128 12.0 18.0 0.00 0.00 0.00 60 1007.4
20240526143517 69 128 11.0 16.0 0.00 0.00 0.00 62 1007.6
20240526143017 68 127 10.0 17.0 0.00 0.00 0.00 63 1007.6
20240526142518 67 132 11.0 18.0 0.00 0.00 0.00 62 1007.8
20240526142017 67 121 10.0 18.0 0.00 0.00 0.00 62 1007.9
20240526141537 66 123 10.0 15.0 0.00 0.00 0.00 65 1007.8
20240526141017 66 114 11.0 15.0 0.00 0.00 0.00 64 1008.1
20240526140517 65 110 9.0 14.0 0.00 0.00 0.00 67 1008.1
20240526140017 64 101 8.0 12.0 0.00 0.00 0.00 69 1008.1
20240526135538 63 97 8.0 12.0 0.00 0.00 0.00 71 1008.2
20240526135017 62 92 6.0 10.0 0.00 0.00 0.00 74 1008.3
20240526134517 61 97 6.0 10.0 0.00 0.00 0.00 76 1008.4
20240526134017 60 96 7.0 10.0 0.00 0.00 0.00 77 1008.6
20240526133517 60 97 6.0 10.0 0.00 0.00 0.00 81 1008.8
20240526133018 59 98 6.0 9.0 0.00 0.00 0.00 82 1008.9
20240526132516 58 102 6.0 8.0 0.00 0.00 0.00 85 1009.0
20240526132018 58 100 5.0 8.0 0.00 0.00 0.00 85 1009.1
20240526131517 57 106 4.0 6.0 0.00 0.00 0.00 86 1009.2
20240526131018 57 102 3.0 4.0 0.00 0.00 0.00 85 1009.3
20240526130517 56 103 2.0 4.0 0.00 0.00 0.00 85 1009.5
20240526130017 56 103 1.0 2.0 0.00 0.00 0.00 85 1009.6
20240526125517 56 102 1.0 2.0 0.00 0.00 0.00 86 1009.6
20240526125037 55 103 0.0 2.0 0.00 0.00 0.00 87 1009.8
20240526124516 55 103 0.0 2.0 0.00 0.00 0.00 87 1009.7
20240526124017 55 103 0.0 2.0 0.00 0.00 0.00 88 1009.6
20240526123517 54 103 0.0 2.0 0.00 0.00 0.00 88 1009.6
20240526123016 54 103 0.0 2.0 0.00 0.00 0.00 89 1009.7
20240526122537 54 0.0 0.0 0.00 0.00 0.00 89 1009.8
20240526122017 53 0.0 1.0 0.00 0.00 0.00 89 1009.9
20240526121516 53 104 0.0 3.0 0.00 0.00 0.00 89 1009.6
20240526121017 53 103 1.0 4.0 0.00 0.00 0.00 89 1009.6
20240526120516 52 104 2.0 4.0 0.00 0.00 0.00 90 1009.5
20240526120037 52 102 2.0 4.0 0.00 0.00 0.00 90 1009.4
20240526115516 52 114 2.0 4.0 0.00 0.00 0.00 90 1009.3
20240526115037 52 116 2.0 3.0 0.00 0.00 0.00 90 1009.3
20240526114517 51 109 1.0 3.0 0.00 0.00 0.00 90 1009.4
20240526114018 51 87 1.0 2.0 0.00 0.00 0.00 90 1009.5
20240526113537 51 74 0.0 4.0 0.00 0.00 0.00 90 1009.4
20240526113037 51 59 1.0 4.0 0.00 0.00 0.00 90 1009.3
20240526112537 51 45 2.0 4.0 0.00 0.00 0.00 91 1009.2
20240526112017 51 53 2.0 4.0 0.00 0.00 0.00 91 1009.0
20240526111516 50 72 2.0 4.0 0.00 0.00 0.00 92 1009.0
20240526111018 50 76 2.0 5.0 0.00 0.00 0.00 92 1008.8
20240526110516 49 79 3.0 6.0 0.00 0.00 0.00 93 1008.7
20240526110017 49 85 3.0 6.0 0.00 0.00 0.00 93 1008.7
20240526105618 48 94 3.0 6.0 0.00 0.00 0.00 94 1008.8
20240526105037 48 93 3.0 6.0 0.00 0.00 0.00 94 1008.8
20240526104516 47 100 3.0 6.0 0.00 0.00 0.00 93 1008.8
20240526104036 47 97 2.0 3.0 0.00 0.00 0.00 93 1008.8
20240526103517 47 74 1.0 3.0 0.00 0.00 0.00 93 1008.9
20240526103017 47 0.0 1.0 0.00 0.00 0.00 93 1009.0
20240526102516 47 67 0.0 1.0 0.00 0.00 0.00 93 1009.1
20240526102016 47 67 0.0 2.0 0.00 0.00 0.00 93 1009.0
20240526101516 47 66 1.0 2.0 0.00 0.00 0.00 93 1008.9
20240526101017 47 66 1.0 2.0 0.00 0.00 0.00 93 1008.8
20240526100517 47 66 1.0 2.0 0.00 0.00 0.00 93 1008.8
20240526100016 47 67 1.0 2.0 0.00 0.00 0.00 93 1008.8
20240526095516 47 66 1.0 2.0 0.00 0.00 0.00 93 1008.9
20240526095038 48 0.0 2.0 0.00 0.00 0.00 93 1009.1
20240526094517 48 72 1.0 4.0 0.00 0.00 0.00 93 1009.0
20240526094016 47 72 2.0 4.0 0.00 0.00 0.00 93 1008.9
20240526093517 48 92 1.0 6.0 0.00 0.00 0.00 93 1008.8
20240526093017 48 80 3.0 8.0 0.00 0.00 0.00 94 1008.9
20240526092538 47 81 5.0 8.0 0.00 0.00 0.00 94 1008.8
20240526092016 47 98 3.0 4.0 0.00 0.00 0.00 93 1009.2
20240526091517 47 103 1.0 3.0 0.00 0.00 0.00 94 1009.3
20240526091016 47 101 2.0 3.0 0.00 0.00 0.00 94 1009.3
20240526090516 48 100 1.0 3.0 0.00 0.00 0.00 94 1009.6
20240526090018 48 82 2.0 3.0 0.00 0.06 0.00 94 1009.4
20240526085516 47 44 0.0 2.0 0.00 0.22 0.00 94 1009.5
20240526085016 47 43 0.0 2.0 0.00 0.22 0.00 94 1009.5
20240526084516 47 72 1.0 2.0 0.00 0.22 0.00 94 1009.6
20240526084018 47 93 0.0 1.0 0.00 0.22 0.00 93 1009.7
20240526083516 47 93 0.0 3.0 0.00 0.22 0.00 93 1009.5
20240526083016 47 93 1.0 3.0 0.00 0.22 0.00 93 1009.4
20240526082516 47 95 1.0 2.0 0.00 0.22 0.00 93 1009.5
20240526082017 47 111 1.0 2.0 0.00 0.22 0.00 93 1009.6
20240526081516 47 140 0.0 2.0 0.00 0.22 0.00 93 1009.7
20240526081036 47 126 1.0 2.0 0.00 0.22 0.00 93 1010.0
20240526080536 47 107 0.0 3.0 0.00 0.22 0.00 93 1009.7
20240526080016 47 107 1.0 3.0 0.00 0.22 0.00 93 1009.7
20240526075517 47 101 2.0 3.0 0.00 0.22 0.00 93 1009.6
20240526075016 47 101 1.0 3.0 0.00 0.22 0.00 93 1009.8
20240526074516 47 104 1.0 2.0 0.00 0.22 0.00 93 1010.0
20240526074017 47 104 0.0 2.0 0.00 0.22 0.00 93 1010.1
20240526073516 47 105 0.0 2.0 0.00 0.22 0.00 93 1010.1
20240526073037 47 104 0.0 2.0 0.00 0.22 0.00 93 1010.1
20240526072516 47 104 0.0 6.0 0.00 0.22 0.00 93 1010.3
20240526072016 47 104 2.0 7.0 0.00 0.22 0.00 93 1010.2
20240526071517 47 105 4.0 7.0 0.00 0.22 0.00 92 1009.9
20240526071016 47 120 3.0 4.0 0.00 0.22 0.00 92 1010.2
20240526070516 47 124 2.0 4.0 0.00 0.22 0.00 92 1010.3
20240526070016 47 124 0.0 2.0 0.00 0.22 0.00 92 1010.6
20240526065516 47 124 1.0 3.0 0.00 0.22 0.00 92 1010.7
20240526065016 47 133 1.0 3.0 0.00 0.22 0.00 92 1010.6
20240526064516 48 139 1.0 2.0 0.00 0.22 0.00 92 1010.6
20240526064016 48 145 0.0 2.0 0.00 0.22 0.00 92 1010.7
20240526063516 48 144 0.0 1.0 0.00 0.22 0.00 92 1010.6
20240526063036 48 145 0.0 2.0 0.00 0.22 0.00 92 1010.7
20240526062516 48 133 0.0 2.0 0.00 0.22 0.00 92 1010.8
20240526062016 48 107 0.0 3.0 0.00 0.22 0.00 91 1010.6
20240526061516 48 107 2.0 4.0 0.00 0.22 0.00 91 1010.3
20240526061036 48 112 2.0 4.0 0.00 0.22 0.00 91 1010.4
20240526060516 48 108 3.0 4.0 0.00 0.22 0.00 91 1010.4
20240526060016 48 118 2.0 3.0 0.00 0.22 0.00 91 1010.6
20240526055516 48 120 2.0 3.0 0.00 0.22 0.00 90 1010.8
20240526055016 48 126 2.0 3.0 0.00 0.22 0.00 90 1010.8
20240526054516 48 129 1.0 2.0 0.00 0.22 0.00 90 1011.0
20240526054016 48 128 0.0 2.0 0.00 0.22 0.00 90 1011.2
20240526053517 48 129 0.0 2.0 0.00 0.22 0.00 90 1011.1
20240526053016 48 129 0.0 2.0 0.00 0.22 0.00 90 1011.0
20240526052516 48 0.0 2.0 0.00 0.22 0.00 89 1011.2
20240526052016 48 128 1.0 3.0 0.00 0.22 0.00 89 1011.2
20240526051537 49 128 2.0 3.0 0.00 0.22 0.00 89 1011.0
20240526051017 49 128 1.0 2.0 0.00 0.22 0.00 88 1011.1
20240526050516 49 128 0.0 2.0 0.00 0.22 0.00 88 1011.0
20240526050036 49 128 1.0 2.0 0.00 0.22 0.00 88 1011.0
20240526045516 49 128 1.0 2.0 0.00 0.22 0.00 87 1011.1
20240526045016 49 129 1.0 2.0 0.00 0.22 0.00 87 1011.1
20240526044515 49 129 1.0 2.0 0.00 0.22 0.00 87 1011.2
20240526044016 49 129 1.0 2.0 0.00 0.22 0.00 86 1011.2
20240526043537 50 128 1.0 2.0 0.00 0.22 0.00 86 1011.3
20240526043016 50 129 1.0 2.0 0.00 0.22 0.00 85 1011.3
20240526042517 50 128 0.0 1.0 0.00 0.22 0.00 85 1011.3
20240526042036 50 129 0.0 1.0 0.00 0.22 0.00 84 1011.2
20240526041516 50 0.0 1.0 0.00 0.22 0.00 84 1011.4
20240526041036 50 129 0.0 1.0 0.00 0.22 0.00 84 1011.4
20240526040516 50 128 0.0 1.0 0.00 0.22 0.00 83 1011.3
20240526040016 50 128 0.0 1.0 0.00 0.22 0.22 83 1011.2
20240526035516 51 129 0.0 1.0 0.00 0.22 0.22 83 1011.1
20240526035016 51 129 0.0 1.0 0.00 0.22 0.22 82 1011.1
20240526034516 51 129 0.0 1.0 0.00 0.22 0.22 81 1011.2
20240526034016 51 129 0.0 1.0 0.00 0.22 0.22 80 1011.3
20240526033516 51 129 0.0 1.0 0.00 0.22 0.22 80 1011.3
20240526033016 51 129 0.0 1.0 0.00 0.22 0.22 79 1011.3
20240526032516 52 129 0.0 1.0 0.00 0.22 0.22 79 1011.2
20240526032016 52 0.0 1.0 0.00 0.22 0.22 79 1011.2
20240526031516 52 129 0.0 1.0 0.00 0.22 0.22 79 1011.3
20240526031016 52 129 0.0 2.0 0.00 0.22 0.22 79 1011.4
20240526030516 52 129 0.0 2.0 0.00 0.22 0.22 79 1011.4
20240526030036 52 129 0.0 2.0 0.00 0.22 0.22 79 1011.5
20240526025517 53 128 1.0 2.0 0.00 0.22 0.22 79 1011.3
20240526025016 53 128 1.0 3.0 0.00 0.22 0.22 77 1011.4
20240526024516 53 129 2.0 3.0 0.00 0.22 0.22 76 1011.3
20240526024016 54 148 1.0 3.0 0.00 0.22 0.22 75 1011.1
20240526023516 54 154 1.0 2.0 0.00 0.22 0.22 74 1011.1
20240526023016 55 215 0.0 2.0 0.00 0.22 0.22 72 1011.2
20240526022516 55 220 0.0 2.0 0.00 0.22 0.22 71 1011.3
20240526022016 55 230 0.0 2.0 0.00 0.22 0.22 70 1011.4
20240526021517 56 319 0.0 2.0 0.00 0.22 0.22 70 1011.3
20240526021016 56 318 1.0 2.0 0.00 0.22 0.22 69 1011.3
20240526020516 56 289 0.0 2.0 0.00 0.22 0.22 66 1011.2
20240526020016 57 278 1.0 3.0 0.00 0.22 0.22 66 1011.3
20240526015516 57 243 1.0 3.0 0.00 0.22 0.22 64 1011.2
20240526015016 57 216 0.0 2.0 0.00 0.22 0.22 64 1011.2
20240526014516 58 230 1.0 2.0 0.00 0.22 0.22 63 1011.1
20240526014036 58 248 1.0 2.0 0.00 0.22 0.22 62 1011.0
20240526013536 59 257 0.0 2.0 0.00 0.22 0.22 62 1010.8
20240526013016 59 256 0.0 3.0 0.00 0.22 0.22 60 1010.7
20240526012516 59 249 1.0 3.0 0.00 0.22 0.22 60 1010.6
20240526012016 60 266 1.0 3.0 0.00 0.22 0.22 59 1010.6
20240526011517 60 264 0.0 2.0 0.00 0.22 0.22 58 1010.5
20240526011036 61 259 1.0 3.0 0.00 0.22 0.22 57 1010.5
20240526010517 61 256 1.0 3.0 0.00 0.22 0.22 55 1010.5
20240526010016 62 260 1.0 3.0 0.00 0.22 0.22 54 1010.6
20240526005517 62 251 2.0 4.0 0.00 0.22 0.22 54 1010.5
20240526005036 62 267 2.0 6.0 0.00 0.22 0.22 53 1010.6
20240526004536 63 271 3.0 6.0 0.00 0.22 0.22 52 1010.5
20240526004016 63 283 3.0 7.0 0.00 0.22 0.22 51 1010.5
20240526003516 63 282 4.0 7.0 0.00 0.22 0.22 50 1010.6
20240526003016 64 263 3.0 6.0 0.00 0.22 0.22 50 1010.6
20240526002516 64 272 2.0 8.0 0.00 0.22 0.22 50 1010.6
20240526002015 64 291 4.0 8.0 0.00 0.22 0.22 49 1010.5
20240526001516 64 291 4.0 9.0 0.00 0.22 0.22 48 1010.6
20240526001016 65 282 5.0 9.0 0.00 0.22 0.22 47 1010.4
20240526000516 65 279 4.0 10.0 0.00 0.22 0.22 46 1010.3
20240526000016 65 273 6.0 10.0 0.00 0.22 0.22 46 1010.4
20240525235516 65 269 5.0 11.0 0.00 0.22 0.22 47 1010.5
20240525235016 65 283 6.0 11.0 0.00 0.22 0.22 44 1010.4
20240525234516 66 267 5.0 9.0 0.00 0.22 0.22 45 1010.3
20240525234017 66 294 3.0 9.0 0.00 0.22 0.22 46 1010.2
20240525233515 66 267 5.0 9.0 0.00 0.22 0.22 45 1010.3
20240525233016 66 265 5.0 9.0 0.00 0.22 0.22 45 1010.3
20240525232515 66 283 5.0 12.0 0.00 0.22 0.22 45 1010.3
20240525232036 66 279 7.0 12.0 0.00 0.22 0.22 45 1010.3
20240525231516 66 294 6.0 10.0 0.00 0.22 0.22 44 1010.3
20240525231016 67 282 6.0 11.0 0.00 0.22 0.22 45 1010.3
20240525230516 67 261 7.0 11.0 0.00 0.22 0.22 45 1010.3
20240525230016 67 261 6.0 10.0 0.00 0.22 0.22 45 1010.2
20240525225516 67 290 5.0 10.0 0.00 0.22 0.22 43 1010.2
20240525225017 67 271 5.0 10.0 0.00 0.22 0.22 42 1010.2
20240525224516 67 266 6.0 11.0 0.00 0.22 0.22 42 1010.2
20240525224036 67 272 6.0 11.0 0.00 0.22 0.22 42 1010.3
20240525223515 67 290 5.0 11.0 0.00 0.22 0.22 42 1010.2
20240525223056 67 269 7.0 11.0 0.00 0.22 0.22 41 1010.2
20240525222536 67 281 6.0 10.0 0.00 0.22 0.22 40 1010.2
20240525222017 67 264 6.0 10.0 0.00 0.22 0.22 41 1010.2
20240525221516 67 269 6.0 12.0 0.00 0.22 0.22 42 1010.1
20240525221016 67 303 7.0 13.0 0.00 0.22 0.22 41 1010.2
20240525220516 68 278 7.0 13.0 0.00 0.22 0.22 42 1010.2
20240525220015 68 285 5.0 11.0 0.00 0.22 0.22 41 1010.2
20240525215515 68 277 7.0 11.0 0.00 0.22 0.22 42 1010.2
20240525215015 68 283 7.0 11.0 0.00 0.22 0.22 39 1010.2
20240525214516 68 291 5.0 12.0 0.00 0.22 0.22 41 1010.2
20240525214016 68 260 7.0 12.0 0.00 0.22 0.22 43 1010.2
20240525213516 68 303 6.0 11.0 0.00 0.22 0.22 40 1010.1
20240525213015 68 297 7.0 11.0 0.00 0.22 0.22 42 1010.1
20240525212517 68 304 6.0 11.0 0.00 0.22 0.22 39 1010.0
20240525212016 68 310 7.0 12.0 0.00 0.22 0.22 39 1010.1
20240525211515 68 294 8.0 12.0 0.00 0.22 0.22 38 1010.1
20240525211015 68 274 5.0 11.0 0.00 0.22 0.22 43 1010.1